Terug naar catalogus

KUIPER-00607

ActiefCommunicatieLEO
NORAD 69290·PAYLOAD·🇺🇸 United States

Gelanceerd May 29, 2026 vanaf Vandenberg Space Force Base

Loading…

Volgende Passages (komende 24 uur)

TLE

VersSource: CelesTrak SupGP

Epoch: Sep 14, 2026, 22:51 UTC

1 69290C 26118Z   26257.95263889  .00002080  00000+0  27224-3 0  2572
2 69290  51.9014 348.7329 0001279   7.3039 262.6853 14.79930832    14

Volg KUIPER-00607 in realtime met AllMySat

Download on the App Store